Regional Weather Roundup
Issued by NWS

Home | Current Version | Previous Version | Graphics & Text | Print | Product List | Glossary On
Versions: 1 2 3 4 5 6 7 8 9 10 11 12 13 14 15 16 17 18 19 20 21 22 23 24 25 26 27 28 29 30 31 32 33 34 35 36 37 38 39 40 41 42 43 44 45 46 47 48 49 50
776
ASUS43 KOAX 290710
RWRNE

WEATHER ROUNDUP FOR NEBRASKA
NATIONAL WEATHER SERVICE OMAHA NE
200 AM CDT THU SEP 29 2016

NOTES: SATELLITE DATA IS BEING USED TO AUGMENT CLOUD COVER ABOVE
       12000 FEET.
       "FAIR" INDICATES FEW OR NO CLOUDS BELOW 12,000 FEET WITH NO
       SIGNIFICANT WEATHER AND/OR OBSTRUCTIONS TO VISIBILITY.

  * THESE STATIONS DO NOT REPORT WEATHER SUCH AS RAIN...SNOW OR FOG.

NEZ001>004-019>022-054>056-290800-
NEBRASKA PANHANDLE

CITY           SKY/WX    TMP DP  RH WIND       PRES   REMARKS
SCOTTSBLUFF    CLEAR     54  41  61 E12       30.36R
ALLIANCE       CLEAR     46  39  76 SE6       30.36S
CHADRON        CLEAR     58  35  42 SE5       30.34R
KIMBALL        CLEAR     52  41  67 SE8       30.39F
SIDNEY         CLEAR     51  37  58 S12       30.39R
$$

NEZ057>060-069>072-079>082-290800-
SOUTHWEST NEBRASKA

CITY           SKY/WX    TMP DP  RH WIND       PRES   REMARKS
NORTH PLATTE   CLOUDY    42  38  85 E5        30.38S
IMPERIAL       CLEAR     48  35  60 S5        30.38R
LEXINGTON      CLOUDY    44  40  86 CALM      30.37S
MCCOOK         CLEAR     48  38  68 CALM      30.37R HAZE
OGALLALA       CLEAR     48  37  65 E3        30.38S
$$

NEZ005>010-023>029-035>040-094-290800-
NORTH CENTRAL NEBRASKA

CITY           SKY/WX    TMP DP  RH WIND       PRES   REMARKS
VALENTINE      CLOUDY    46  40  79 CALM      30.38S
AINSWORTH      CLOUDY    42  40  95 S5        30.38S
BROKEN BOW     CLOUDY    40  38  93 N3        30.38S
O`NEILL        CLOUDY    45  42  88 CALM      30.39S
ORD            LGT RAIN  39  35  86 CALM      30.38R
THEDFORD       CLOUDY    42  39  89 CALM      30.39S
$$

NEZ041-046>049-061>064-073>077-083>087-290800-
SOUTH CENTRAL NEBRASKA

CITY           SKY/WX    TMP DP  RH WIND       PRES   REMARKS
GRAND ISLAND   CLOUDY    41  37  86 NE3       30.37S
AURORA         CLOUDY    42  41  96 CALM      30.37S
HASTINGS       CLOUDY    45  40  82 NE5       30.37S
HEBRON         CLOUDY    45  42  90 CALM      30.36R
HOLDREGE       CLOUDY    43  39  85 CALM      30.37S
KEARNEY *      CLOUDY    46  39  76 NE3       30.38R
YORK           CLOUDY    43  41  93 CALM      30.37S
$$

NEZ011>018-030>034-042>045-290800-
NORTHEAST NEBRASKA

CITY           SKY/WX    TMP DP  RH WIND       PRES   REMARKS
NORFOLK        CLOUDY    42  40  92 W3        30.38R
ALBION         CLOUDY    42  39  91 CALM      30.38S
BLAIR          CLEAR     49  46  88 N7        30.35S
FREMONT        CLEAR     44  42  96 W3        30.37R
TEKAMAH        CLEAR     45  42  89 N7        30.36S
WAYNE          CLOUDY    40  39  97 CALM      30.39R
$$

NEZ050>053-065>068-078-088>093-290800-
SOUTHEAST NEBRASKA

CITY           SKY/WX    TMP DP  RH WIND       PRES   REMARKS
LINCOLN        CLEAR     46  43  89 N5        30.37S
OMAHA EPPLEY   CLEAR     48  44  86 NW6       30.35S
BEATRICE       CLEAR     47  46  93 N6        30.35R
FALLS CITY     CLEAR     50  47  89 NW6       30.31S
NEBRASKA CITY  CLEAR     49  45  83 N6        30.33S
PLATTSMOUTH    CLEAR     49  45  84 NW3       30.34S
$$

NEZ044-045-051>053-067-290800-
OMAHA AREA

CITY           SKY/WX    TMP DP  RH WIND       PRES   REMARKS
OMAHA EPPLEY   CLEAR     48  44  86 NW6       30.35S
BLAIR          CLEAR     49  46  88 N7        30.35S
FREMONT        CLEAR     44  42  96 W3        30.37R
MILLARD        CLEAR     50  46  86 NW3       30.35S
OFFUTT AFB     CLEAR     54  47  79 N5        30.33S
PLATTSMOUTH    CLEAR     49  45  84 NW3       30.34S
WAHOO          FAIR      47  45  91 NW6       30.36S
$$




USA.gov is the U.S. government's official web portal to all federal, state and local government web resources and services.